Weather History for Camdenton, MO

Change the Weather History Date:

Sunday, December 30, 2012

  Actual Average (KAIZ) Record (KAIZ)
Temperature  
Mean Temperature 36 °F -  
Max Temperature 44 °F 40 °F 69 °F (2004)
Min Temperature 28 °F 23 °F 6 °F (2013)
Degree Days  
Heating Degree Days 29    
Moisture  
Dew Point 17 °F    
Average Humidity 47    
Maximum Humidity 64    
Minimum Humidity 27    
Precipitation  
Precipitation 0.00 in - - ()
Sea Level Pressure  
Sea Level Pressure 30.30 in    
Wind  
Wind Speed 9 mph (South)    
Max Wind Speed 17 mph    
Max Gust Speed 21 mph    
Visibility 10 miles    
Events      
Averages and records for this station are not official NWS values.
T = Trace of Precipitation, MM = Missing Value Source: NWS Daily Summary

Daily Weather History Graph

Daily Weather History Graph

Search for Another Location

Airport:

Trip Planner

Search our weather history database for the weather conditions in past years. The results will help you decide how hot, cold, wet, or windy it might be!

Date:

Astronomy

Dec. 30, 2012 Rise Set
Actual Time 7:26 AM CST 5:00 PM CST
Civil Twilight 6:57 AM CST 5:30 PM CST
Nautical Twilight 6:24 AM CST 6:03 PM CST
Astronomical Twilight 5:52 AM CST 6:35 PM CST
Moon 7:29 PM CST (12/30) 8:38 AM CST (12/30)
Length of Visible Light 10h 33m
Length of Day
9h 34m
Waning Gibbous, 95% of the Moon is Illuminated
Dec 30
Waning Gibbous
Jan 4
Last Quarter
Jan 11
New
Jan 18
First Quarter
Jan 26
Full

Hourly Weather History & Observations

Time (CST) Temp. Windchill Dew Point Humidity Pressure Visibility Wind Dir Wind Speed Gust Speed Precip Events Conditions
12:15 AM 28.4 °F 19.7 °F 17.6 °F 64% 30.34 in 10.0 mi SW 9.2 mph - N/A   Clear
12:35 AM 28.4 °F 19.7 °F 17.6 °F 64% 30.35 in 10.0 mi SW 9.2 mph - N/A   Clear
12:55 AM 28.4 °F 19.7 °F 15.8 °F 59% 30.36 in 10.0 mi SW 9.2 mph - N/A   Clear
1:15 AM 28.4 °F 19.7 °F 15.8 °F 59% 30.36 in 10.0 mi SW 9.2 mph - N/A   Clear
1:35 AM 28.4 °F 20.4 °F 15.8 °F 59% 30.36 in 10.0 mi SW 8.1 mph - N/A   Clear
1:55 AM 28.4 °F 20.4 °F 15.8 °F 59% 30.36 in 10.0 mi SW 8.1 mph - N/A   Clear
2:15 AM 28.4 °F 19.7 °F 15.8 °F 59% 30.36 in 10.0 mi SW 9.2 mph - N/A   Clear
2:35 AM 28.4 °F 19.7 °F 15.8 °F 59% 30.37 in 10.0 mi SW 9.2 mph - N/A   Clear
2:55 AM 28.4 °F 20.4 °F 15.8 °F 59% 30.38 in 10.0 mi SW 8.1 mph - N/A   Clear
3:15 AM 28.4 °F 20.4 °F 15.8 °F 59% 30.37 in 10.0 mi SW 8.1 mph - N/A   Clear
3:35 AM 28.4 °F 20.4 °F 15.8 °F 59% 30.36 in 10.0 mi SW 8.1 mph - N/A   Clear
7:35 AM 28.4 °F 20.4 °F 17.6 °F 64% 30.39 in 10.0 mi SSW 8.1 mph - N/A   Clear
7:55 AM 28.4 °F 20.4 °F 17.6 °F 64% 30.38 in 10.0 mi SSW 8.1 mph - N/A   Clear
8:15 AM 30.2 °F 23.4 °F 17.6 °F 60% 30.38 in 10.0 mi SSW 6.9 mph - N/A   Clear
8:35 AM 30.2 °F 25.4 °F 17.6 °F 60% 30.38 in 10.0 mi South 4.6 mph - N/A   Clear
8:55 AM 32.0 °F 28.7 °F 17.6 °F 55% 30.38 in 10.0 mi SE 3.5 mph - N/A   Clear
9:15 AM 32.0 °F - 19.4 °F 60% 30.38 in 10.0 mi Calm Calm - N/A   Clear
9:35 AM 33.8 °F 28.6 °F 19.4 °F 56% 30.38 in 10.0 mi SSW 5.8 mph - N/A   Clear
9:55 AM 35.6 °F 29.2 °F 19.4 °F 52% 30.39 in 10.0 mi SSW 8.1 mph - N/A   Clear
10:15 AM 35.6 °F 28.6 °F 19.4 °F 52% 30.40 in 10.0 mi SSW 9.2 mph - N/A   Clear
10:35 AM 37.4 °F 30.3 °F 19.4 °F 48% 30.40 in 10.0 mi SSW 10.4 mph - N/A   Clear
10:55 AM 39.2 °F 32.0 °F 21.2 °F 49% 30.39 in 10.0 mi SSW 11.5 mph 16.1 mph N/A   Clear
11:15 AM 39.2 °F 32.5 °F 21.2 °F 49% 30.38 in 10.0 mi South 10.4 mph - N/A   Clear
11:35 AM 41.0 °F 35.8 °F 21.2 °F 45% 30.36 in 10.0 mi South 8.1 mph - N/A   Clear
11:55 AM 41.0 °F 33.5 °F 19.4 °F 42% 30.34 in 10.0 mi South 13.8 mph 17.3 mph N/A   Clear
12:15 PM 42.8 °F 35.8 °F 17.6 °F 36% 30.33 in 10.0 mi South 13.8 mph 18.4 mph N/A   Clear
12:35 PM 42.8 °F 37.0 °F 17.6 °F 36% 30.31 in 10.0 mi SSW 10.4 mph 16.1 mph N/A   Clear
12:55 PM 42.8 °F 37.0 °F 14.0 °F 31% 30.30 in 10.0 mi South 10.4 mph - N/A   Clear
1:15 PM 42.8 °F 38.0 °F 14.0 °F 31% 30.29 in 10.0 mi SSW 8.1 mph - N/A   Clear
1:35 PM 44.6 °F 37.8 °F 14.0 °F 29% 30.29 in 10.0 mi South 15.0 mph 20.7 mph N/A   Clear
1:55 PM 44.6 °F 37.8 °F 12.2 °F 27% 30.29 in 10.0 mi South 15.0 mph 19.6 mph N/A   Clear
2:15 PM 44.6 °F 37.8 °F 12.2 °F 27% 30.28 in 10.0 mi SSW 15.0 mph 20.7 mph N/A   Clear
2:35 PM 44.6 °F 38.1 °F 12.2 °F 27% 30.28 in 10.0 mi SSW 13.8 mph 19.6 mph N/A   Clear
2:55 PM 44.6 °F 38.4 °F 12.2 °F 27% 30.29 in 10.0 mi South 12.7 mph 19.6 mph N/A   Clear
3:15 PM 42.8 °F 37.0 °F 12.2 °F 29% 30.28 in 10.0 mi South 10.4 mph - N/A   Clear
3:35 PM 42.8 °F 34.8 °F 14.0 °F 31% 30.26 in 10.0 mi South 17.3 mph 20.7 mph N/A   Clear
3:55 PM 42.8 °F 37.5 °F 14.0 °F 31% 30.27 in 10.0 mi South 9.2 mph - N/A   Clear
4:15 PM 41.0 °F 35.2 °F 14.0 °F 33% 30.26 in 10.0 mi South 9.2 mph - N/A   Clear
4:35 PM 41.0 °F 35.2 °F 14.0 °F 33% 30.27 in 10.0 mi South 9.2 mph - N/A   Clear
4:55 PM 41.0 °F 36.4 °F 14.0 °F 33% 30.26 in 10.0 mi SSE 6.9 mph - N/A   Clear
5:15 PM 39.2 °F 35.0 °F 14.0 °F 36% 30.26 in 10.0 mi SSE 5.8 mph - N/A   Clear
5:35 PM 37.4 °F 31.4 °F 15.8 °F 41% 30.25 in 10.0 mi SSE 8.1 mph - N/A   Clear
5:55 PM 37.4 °F 32.1 °F 15.8 °F 41% 30.25 in 10.0 mi SSE 6.9 mph - N/A   Clear
6:15 PM 37.4 °F 32.8 °F 17.6 °F 45% 30.25 in 10.0 mi South 5.8 mph - N/A   Clear
6:35 PM 37.4 °F 32.1 °F 17.6 °F 45% 30.24 in 10.0 mi SSE 6.9 mph - N/A   Clear
6:55 PM 35.6 °F 29.9 °F 17.6 °F 48% 30.24 in 10.0 mi SSE 6.9 mph - N/A   Clear
7:15 PM 35.6 °F 29.9 °F 17.6 °F 48% 30.24 in 10.0 mi SSE 6.9 mph - N/A   Clear
7:35 PM 35.6 °F 29.2 °F 17.6 °F 48% 30.23 in 10.0 mi SSE 8.1 mph - N/A   Clear
7:55 PM 35.6 °F 28.6 °F 19.4 °F 52% 30.23 in 10.0 mi SSE 9.2 mph - N/A   Clear
8:15 PM 35.6 °F 28.6 °F 19.4 °F 52% 30.22 in 10.0 mi SSE 9.2 mph - N/A   Clear
8:35 PM 35.6 °F 29.2 °F 19.4 °F 52% 30.22 in 10.0 mi SSE 8.1 mph - N/A   Clear
8:55 PM 35.6 °F 29.2 °F 19.4 °F 52% 30.21 in 10.0 mi SSE 8.1 mph - N/A   Clear
9:15 PM 35.6 °F 28.6 °F 19.4 °F 52% 30.20 in 10.0 mi SSE 9.2 mph - N/A   Clear
9:35 PM 35.6 °F 28.0 °F 19.4 °F 52% 30.20 in 10.0 mi SSE 10.4 mph - N/A   Clear
9:55 PM 35.6 °F 29.9 °F 19.4 °F 52% 30.20 in 10.0 mi SSE 6.9 mph - N/A   Clear
10:15 PM 35.6 °F 29.2 °F 17.6 °F 48% 30.20 in 10.0 mi SSE 8.1 mph - N/A   Clear
10:35 PM 35.6 °F 29.2 °F 17.6 °F 48% 30.19 in 10.0 mi SSE 8.1 mph - N/A   Clear
10:55 PM 35.6 °F 29.9 °F 17.6 °F 48% 30.20 in 10.0 mi SSE 6.9 mph - N/A   Clear
11:15 PM 35.6 °F 30.7 °F 17.6 °F 48% 30.20 in 10.0 mi SSE 5.8 mph - N/A   Clear
11:35 PM 35.6 °F 29.9 °F 17.6 °F 48% 30.20 in 10.0 mi South 6.9 mph - N/A   Clear
11:55 PM 35.6 °F 29.9 °F 17.6 °F 48% 30.21 in 10.0 mi South 6.9 mph - N/A   Clear